{"data":{"norad_id":38251,"epoch":"2026-05-24T11:52:31.111392Z","epoch_age_seconds":111954,"freshness":"FRESH","line1":"1 38251U 12018B   26144.49480453 -.00000081  00000+0  00000+0 0  9993","line2":"2 38251  55.6787 304.8888 0010978 279.4145  80.4412  1.86229229 95504","mean_motion":1.86229229,"eccentricity":0.0010978,"inclination_deg":55.6787,"raan_deg":304.8888,"arg_perigee_deg":279.4145,"mean_anomaly_deg":80.4412,"bstar":0,"rev_number":9550,"period_min":773.24059586801,"perigee_km":21497.592876818,"apogee_km":21558.864092876,"semimajor_km":27906.365484847,"source":"CELESTRAK","updated_at":"2026-05-25T13:38:24.211805Z"}}